Location: Kampung Segan
(3.1399°N, 113.1002°E)
Time: 13:01:48
(UTC+00:00)

MOS 1-B Rocket - Pass Details

Date: 15 October 2025
Orbit: 891 x 1603 km, 99.0° (Epoch: 16 November)

Event Time Altitude Azimuth Distance (km) Brightness Sun altitude
Rises 18:37:38 0° 50° (NE) 4,672 7.9 -53.7°
Reaches altitude 10° 18:42:02 10° 70° (ENE) 3,765 7.4 -52.6°
Maximum altitude 18:47:00 16° 104° (ESE) 3,347 7.1 -51.4°
Drops below altitude 10° 18:52:00 10° 138° (SE) 3,816 7.4 -50.2°
Sets 18:56:26 0° 157° (SSE) 4,768 7.9 -49.1°
